Starlink 2097

operational
NORAD ID: 47377 Int'l Des: 2021-005 Owner: SPXS Country: US Constellation: starlink
LEOCIRCULARSTARLINK_TYPE

关于 Starlink 2097

正在加载描述...

实时位置

正在加载3D地球...

即将过境

高度历史

Altitude vs Time

uPlot chart will show altitude changes over time

两行轨道根数

1 47377U 21005AE 25353.49385965 .00011917 00000-0 81776-3 0 9994
2 47377 53.0550 61.6343 0001299 91.1148 268.9990 15.06390839270956
Epoch: Dec 19, 2025 • Age: 14 hours

当前状态

高度 553.4 km
速度 7.58 km/s
星下点 -20.98°S, 144.3°E
发射日期 Jan 20, 2021
运行时间 4.9 years
类型 internet

技术详情

分类 Payload
质量 260.00 kg
干质量 248.00 kg
总质量 260.00 kg
长度 0.20 m
直径 2.80 m
跨度 9.00 m
形状 Box + pan
制造商 SPXS
平台类型 Starlink
阶段状态 In Orbit
所有者/国家 SPXS/US

大型星座

Loading constellations...